Regional Weather Roundup
Issued by NWS

Home | Current Version | Previous Version | Text Only | Print | Product List | Glossary Off
Versions: 1 2 3 4 5 6 7 8 9 10 11 12 13 14 15 16 17 18 19 20 21 22 23 24 25 26 27 28 29 30 31 32 33 34 35 36 37 38 39 40 41 42 43 44 45 46 47 48 49 50

000
ASUS43 KMKX 260100
RWRWI

WISCONSIN REGIONAL WEATHER ROUNDUP
NATIONAL WEATHER SERVICE MILWAUKEE/SULLIVAN WI
800 PM CDT SAT MAR 25 2017

NOTE: "FAIR" INDICATES FEW OR NO CLOUDS BELOW 12,000 FEET WITH NO
SIGNIFICANT WEATHER AND/OR OBSTRUCTIONS TO VISIBILITY.

WIZ001-002-006>008-014>016-023>028-260200-
NORTHWEST WISCONSIN

CITY           SKY/WX    TMP DP  RH WIND       PRES   REMARKS
SUPERIOR ARPT  CLOUDY    33  31  94 NE15      30.19S WCI  22
ASHLAND        CLOUDY    32  29  88 NE10      30.18S WCI  24
HAYWARD        CLOUDY    41  29  62 E8        30.11S
SIREN          CLOUDY    42  31  63 E6        30.09F
CUMBERLAND     CLOUDY    37  30  75 E8        30.09S WCI  31
RICE LAKE      CLOUDY    40  32  71 E3        30.10S
CHETEK         DRIZZLE   38  35  90 E5        30.10R WCI  34
LADYSMITH      CLOUDY    40  32  73 E8        30.12R WCI  35
EAU CLAIRE     NOT AVBL
MENOMONIE      CLOUDY    38  37  94 NE5       30.08S FOG     WCI  35
NEW RICHMOND   DRIZZLE   39  32  76 E13G20    30.07S WCI  32
OSCEOLA        CLOUDY    42  34  73 E8        30.11S
$$

WIZ003>005-009-010-017-018-260200-
NORTH CENTRAL WISCONSIN

CITY           SKY/WX    TMP DP  RH WIND       PRES   REMARKS
MANITOWISH WTR CLOUDY    35  32  87 E6        30.13S WCI  30
ARBOR VITAE    CLOUDY    39  32  74 E5        30.12S
WOODRUFF       CLOUDY    39  32  74 E5        30.12S
RHINELANDER    CLOUDY    37  30  75 E16       30.13S WCI  28
EAGLE RIVER    CLOUDY    37  28  69 E12       30.13S WCI  29
LAND O LAKES   CLOUDY    37  31  79 E6        30.16S WCI  32
PHILLIPS       CLOUDY    37  31  78 E5        30.10F WCI  34
TOMAHAWK       RAIN      35  31  84 E7        30.13S WCI  29
MEDFORD        DRIZZLE   34  32  90 E10       30.08F WCI  26
MERRILL        CLOUDY    35  31  83 E9G17     30.13R WCI  28
$$

WIZ029-030-035-036-043>047-260200-
CENTRAL WISCONSIN

CITY           SKY/WX    TMP DP  RH WIND       PRES   REMARKS
WAUSAU         CLOUDY    33  31  92 E10       30.10F WCI  25
MOSINEE        DRIZZLE   32  32 100 E16       30.11F WCI  21
MARSHFIELD     CLOUDY    33  31  92 E18       30.08S WCI  22
STEVENS POINT  CLOUDY    31  31 100 NE14G21   30.11F WCI  21
WAUPACA        CLOUDY    36  34  92 NE7       30.13F WCI  30
WAUTOMA        LGT RAIN  35  34  96 NE14      30.09F WCI  26
WISC RAPIDS    CLOUDY    34  33  96 E13G20    30.10F WCI  25
CAMP DOUGLAS   MIX PCPN  36  36 100 E10       30.06F FOG     WCI  28
$$

WIZ011>013-019>022-031-037>040-048>050-260200-
NORTHEAST WISCONSIN

CITY           SKY/WX    TMP DP  RH WIND       PRES   REMARKS
ANTIGO         MIX PCPN  31  31  97 E12       30.14S WCI  22
SHAWANO        CLOUDY    35  32  90 NE12      30.16S WCI  26
OCONTO         CLOUDY    33  32  96 NE8G16    30.18S WCI  26
STURGEON BAY   LGT RAIN  35  34  96 NE10      30.18S WCI  27
GREEN BAY      LGT RAIN  35  35 100 NE15      30.15S WCI  25
MANITOWOC      NOT AVBL
APPLETON       LGT RAIN  34  34 100 NE13G23   30.10F WCI  25
CLINTONVILLE   LGT RAIN  32  32 100 NE10      30.14F WCI  24
OSHKOSH        CLOUDY    36  35  96 NE12      30.09F FOG     WCI  28
$$

WIZ032>034-041-042-053>061-260200-
SOUTHWEST WISCONSIN

CITY           SKY/WX    TMP DP  RH WIND       PRES   REMARKS
LA CROSSE      LGT RAIN  39  35  86 E9        30.05R FOG     WCI  33
SPARTA         CLOUDY    36  35  96 E12G21    30.07R FOG     WCI  27
VIROQUA        CLOUDY    36  36 100 E17G23    30.00F WCI  26
BOSCOBEL       CLOUDY    40  38  93 NE10G20   30.01S FOG     WCI  33
PRAIRIE DU CHI CLOUDY    39  38  97 NE9       30.00R WCI  32
PLATTEVILLE    CLOUDY    40  40 100 NE22      29.96F WCI  30
$$

WIZ056-057-062-063-064-067-068-260200-
SOUTH CENTRAL WISCONSIN

CITY           SKY/WX    TMP DP  RH WIND       PRES   REMARKS
REEDSBURG      CLOUDY    36  36 100 E10G16    30.05S FOG     WCI  28
BARABOO/DELLS  CLOUDY    36  35  97 E12       30.05S FOG     WCI  28
LONE ROCK      NOT AVBL
MINERAL POINT  CLOUDY    41  41 100 E15G21    29.98S FOG
MADISON        CLOUDY    39  37  92 E14       30.04R WCI  31
MIDDLETON      CLOUDY    40  39  97 E14       30.04R WCI  32
WATERTOWN      CLOUDY    38  38 100 E10G20    30.04S WCI  31
MONROE         CLOUDY    37  37 100 NE18      29.98S WCI  27
JANESVILLE     CLOUDY    41  41 100 E12       29.99S FOG
$$

WIZ051-052-058>065-066-070>072-260200-
SOUTHEAST WISCONSIN

CITY           SKY/WX    TMP DP  RH WIND       PRES   REMARKS
MILWAUKEE      LGT RAIN  39  36  89 NE14      30.06F WCI  31
WAUKESHA       CLOUDY    36  36 100 NE13G18   30.06S WCI  27
MILWAUKEE/TIMM DRIZZLE   37  36  93 NE8       30.08S WCI  31
RACINE         CLOUDY    39  36  89 NE13      30.06F WCI  31
KENOSHA        LGT RAIN  40  39  97 NE13      30.02F FOG     WCI  32
FOND DU LAC    CLOUDY    38  34  85 E13       30.09S WCI  30
SHEBOYGAN      CLOUDY    37  35  92 NE13      30.11S WCI  29
WEST BEND      CLOUDY    36  36 100 E10       30.08S WCI  28
JUNEAU         CLOUDY    37  37  97 NE10G17   30.07S WCI  30
$$

LSZ147-162-260200-
LAKE SUPERIOR

STATION/POSITION TIME  TEMP    WIND        PRES    WAVE
                       AIR SEA DIR/SP/G            HT/PER
                 (UTC) (F)     (DEG/KT/KT) (MB)    (FT/S)
DEVILS ISLAND    0000   33      70/ 21/ 25 1023.9F
PORT WING        0030   34      50/ 10/ 13 1022.4S
SAXON HARBOR     0030   33      70/  6/ 12 1021.3F
$$

LMZ867-665-643>646-260200-
LAKE MICHIGAN

STATION/POSITION TIME  TEMP    WIND        PRES    WAVE
                       AIR SEA DIR/SP/G            HT/PER
                 (UTC) (F)     (DEG/KT/KT) (MB)    (FT/S)
CHAMBERS ISLAND  0040   33      30/ 12/ 16 1022.4R
NORTHPORT PIER   0040   35      60/ 16/ 22 1023.0S
SISTER BAY       2236   35     110/  7/ 13   N/A
KEWAUNEE LAKESHO 0030   36      40/ 10/ 13 1020.8R
SHEBOYGAN LAKESH 0000   37      30/ 16/ 17 1020.0F
PORT WASHINGTON  0040   39      40/ 13/ 17 1020.0F
MILWAUKEE LAKESH 0030   38      20/ 16/ 18   N/A
KENOSHA   LAKESH 0000   38      20/ 17/ 19 1016.9
$$

TC  - TEMPERATURE IN CELSIUS
VSB - VISIBILITY IN STATUTE MILES
WCI - WIND CHILL INDEX
HX  - HEAT INDEX




USA.gov is the U.S. government's official web portal to all federal, state and local government web resources and services.